Previsão horária em Bragança

Hoje, 13 Abril, Terça-feira

Tempo Temperatura Precipitação Vento Pressão Humidade
00:00 +9°C° 0 mm 2 m/s 717 mmHg 46%
01:00 +9°C° 0 mm 2 m/s 717 mmHg 48%
02:00 +9°C° 0 mm 2 m/s 717 mmHg 49%
03:00 +9°C° 0 mm 2 m/s 716 mmHg 51%
04:00 +9°C° 0.1 mm 2 m/s 716 mmHg 55%
05:00 +8°C° 0.1 mm 2 m/s 716 mmHg 58%
06:00 +7°C° 0 mm 2 m/s 716 mmHg 73%
07:00 +7°C° 0.5 mm 2 m/s 717 mmHg 77%
08:00 +7°C° 0.5 mm 2 m/s 717 mmHg 81%
09:00 +7°C° 0.5 mm 2 m/s 717 mmHg 85%
10:00 +7°C° 0.1 mm 2 m/s 717 mmHg 84%
11:00 +8°C° 0.1 mm 2 m/s 717 mmHg 82%
12:00 +8°C° 0.1 mm 2 m/s 717 mmHg 81%
13:00 +9°C° 0 mm 2 m/s 717 mmHg 80%
14:00 +9°C° 0 mm 2 m/s 716 mmHg 78%
15:00 +10°C° 0 mm 2 m/s 716 mmHg 77%
16:00 +15°C° 0 mm 1 m/s 715 mmHg 60%
17:00 +15°C° 0 mm 1 m/s 715 mmHg 62%
18:00 +15°C° 0 mm 1 m/s 715 mmHg 64%
19:00 +14°C° 0 mm 1 m/s 715 mmHg 67%
20:00 +13°C° 0 mm 1 m/s 716 mmHg 70%
21:00 +12°C° 0 mm 1 m/s 716 mmHg 73%
22:00 +11°C° 0 mm 1 m/s 716 mmHg 75%
23:00 +11°C° 0 mm 1 m/s 716 mmHg 77%

Amanhã, 14 Abril, Quarta-feira

Tempo Temperatura Precipitação Vento Pressão Humidade
00:00 +10°C° 0 mm 1 m/s 715 mmHg 78%
01:00 +10°C° 0 mm 1 m/s 715 mmHg 81%
02:00 +8°C° 0 mm 2 m/s 715 mmHg 83%
03:00 +8°C° 0 mm 2 m/s 714 mmHg 85%
04:00 +7°C° 0 mm 2 m/s 714 mmHg 87%
05:00 +7°C° 0 mm 2 m/s 714 mmHg 88%
06:00 +7°C° 0 mm 2 m/s 714 mmHg 90%
07:00 +9°C° 0 mm 2 m/s 714 mmHg 82%
08:00 +12°C° 0 mm 2 m/s 714 mmHg 74%
09:00 +14°C° 0 mm 2 m/s 714 mmHg 66%
10:00 +15°C° 0 mm 2 m/s 714 mmHg 61%
11:00 +17°C° 0 mm 3 m/s 714 mmHg 57%
12:00 +19°C° 0 mm 3 m/s 713 mmHg 52%
13:00 +19°C° 0 mm 3 m/s 713 mmHg 50%
14:00 +20°C° 0 mm 3 m/s 712 mmHg 48%
15:00 +21°C° 0 mm 3 m/s 712 mmHg 46%
16:00 +20°C° 0 mm 3 m/s 712 mmHg 50%
17:00 +19°C° 0 mm 3 m/s 711 mmHg 54%
18:00 +18°C° 0 mm 3 m/s 711 mmHg 58%
19:00 +17°C° 0 mm 4 m/s 711 mmHg 60%
20:00 +15°C° 0 mm 4 m/s 712 mmHg 63%
21:00 +13°C° 0 mm 4 m/s 712 mmHg 65%
22:00 +13°C° 0 mm 4 m/s 712 mmHg 67%
23:00 +12°C° 0 mm 4 m/s 712 mmHg 69%

Depois de amanhã, 15 Abril, Quinta-feira

Tempo Temperatura Precipitação Vento Pressão Humidade
00:00 +11°C° 0 mm 4 m/s 712 mmHg 72%
01:00 +11°C° 0 mm 4 m/s 712 mmHg 72%
02:00 +10°C° 0 mm 4 m/s 712 mmHg 73%
03:00 +10°C° 0 mm 3 m/s 711 mmHg 73%
04:00 +9°C° 0 mm 3 m/s 712 mmHg 74%
05:00 +9°C° 0 mm 3 m/s 712 mmHg 75%
06:00 +9°C° 0 mm 3 m/s 712 mmHg 76%
07:00 +10°C° 0 mm 3 m/s 712 mmHg 71%
08:00 +12°C° 0 mm 4 m/s 712 mmHg 66%
09:00 +13°C° 0 mm 4 m/s 713 mmHg 61%
10:00 +15°C° 0 mm 4 m/s 712 mmHg 58%
11:00 +17°C° 0 mm 4 m/s 712 mmHg 54%
12:00 +19°C° 0 mm 5 m/s 712 mmHg 51%
13:00 +19°C° 0 mm 4 m/s 712 mmHg 49%
14:00 +20°C° 0 mm 4 m/s 712 mmHg 47%
15:00 +20°C° 0 mm 3 m/s 711 mmHg 45%
16:00 +19°C° 0 mm 3 m/s 711 mmHg 49%
17:00 +19°C° 0 mm 2 m/s 711 mmHg 52%
18:00 +18°C° 0 mm 2 m/s 711 mmHg 55%
19:00 +17°C° 0 mm 2 m/s 712 mmHg 54%
20:00 +16°C° 0 mm 2 m/s 712 mmHg 54%
21:00 +15°C° 0 mm 2 m/s 712 mmHg 53%
22:00 +14°C° 0 mm 2 m/s 712 mmHg 52%
23:00 +13°C° 0 mm 2 m/s 713 mmHg 52%

16 Abril, Sexta-feira

Tempo Temperatura Precipitação Vento Pressão Humidade
00:00 +12°C° 0 mm 3 m/s 713 mmHg 52%
01:00 +10°C° 0 mm 3 m/s 713 mmHg 51%
02:00 +9°C° 0 mm 2 m/s 713 mmHg 51%
03:00 +8°C° 0 mm 2 m/s 713 mmHg 50%
04:00 +7°C° 0 mm 2 m/s 713 mmHg 51%
05:00 +6°C° 0 mm 2 m/s 713 mmHg 51%
06:00 +5°C° 0 mm 2 m/s 713 mmHg 51%
07:00 +7°C° 0 mm 2 m/s 713 mmHg 46%
08:00 +9°C° 0 mm 2 m/s 714 mmHg 41%
09:00 +11°C° 0 mm 3 m/s 714 mmHg 36%
10:00 +12°C° 0 mm 3 m/s 714 mmHg 35%
11:00 +14°C° 0 mm 3 m/s 714 mmHg 34%
12:00 +16°C° 0 mm 3 m/s 713 mmHg 33%
13:00 +17°C° 0 mm 2 m/s 713 mmHg 34%
14:00 +18°C° 0 mm 2 m/s 713 mmHg 35%
15:00 +19°C° 0 mm 2 m/s 712 mmHg 35%
16:00 +18°C° 0 mm 2 m/s 712 mmHg 39%
17:00 +18°C° 0 mm 2 m/s 712 mmHg 42%
18:00 +17°C° 0 mm 2 m/s 712 mmHg 46%
19:00 +13°C° 0 mm 4 m/s 713 mmHg 48%
20:00 +9°C° 0 mm 5 m/s 714 mmHg 50%
21:00 +5°C° 0 mm 7 m/s 715 mmHg 52%
22:00 +4°C° 0 mm 7 m/s 715 mmHg 52%
23:00 +3°C° 0 mm 6 m/s 716 mmHg 53%

17 Abril, Sábado

Tempo Temperatura Precipitação Vento Pressão Humidade
00:00 +2°C° 0 mm 6 m/s 716 mmHg 54%
01:00 +1°C° 0 mm 4 m/s 716 mmHg 58%
02:00 +2°C° 0 mm 3 m/s 717 mmHg 61%
03:00 +2°C° 0 mm 2 m/s 717 mmHg 65%
04:00 +2°C° 0 mm 2 m/s 717 mmHg 67%
05:00 +1°C° 0 mm 2 m/s 717 mmHg 69%
06:00 +2°C° 0 mm 1 m/s 717 mmHg 71%
07:00 +3°C° 0 mm 2 m/s 717 mmHg 63%
08:00 +4°C° 0 mm 3 m/s 717 mmHg 55%
09:00 +7°C° 0 mm 3 m/s 718 mmHg 47%
10:00 +9°C° 0 mm 3 m/s 717 mmHg 42%
11:00 +11°C° 0 mm 3 m/s 717 mmHg 37%
12:00 +13°C° 0 mm 3 m/s 717 mmHg 32%
13:00 +15°C° 0 mm 2 m/s 717 mmHg 30%
14:00 +16°C° 0 mm 2 m/s 716 mmHg 28%
15:00 +18°C° 0 mm 1 m/s 716 mmHg 26%
16:00 +18°C° 0 mm 1 m/s 716 mmHg 31%
17:00 +16°C° 0 mm 1 m/s 716 mmHg 36%
18:00 +15°C° 0 mm 1 m/s 716 mmHg 40%
19:00 +14°C° 0 mm 1 m/s 716 mmHg 42%
20:00 +12°C° 0 mm 1 m/s 716 mmHg 44%
21:00 +10°C° 0 mm 0 m/s 716 mmHg 45%
22:00 +9°C° 0 mm 0 m/s 716 mmHg 47%
23:00 +8°C° 0 mm 0 m/s 716 mmHg 49%

18 Abril, Domingo

Tempo Temperatura Precipitação Vento Pressão Humidade
00:00 +8°C° 0 mm 0 m/s 716 mmHg 51%
01:00 +8°C° 0 mm 1 m/s 716 mmHg 53%
02:00 +8°C° 0 mm 1 m/s 716 mmHg 55%
03:00 +7°C° 0 mm 1 m/s 716 mmHg 57%
04:00 +7°C° 0 mm 1 m/s 716 mmHg 59%
05:00 +6°C° 0 mm 1 m/s 716 mmHg 61%
06:00 +6°C° 0 mm 1 m/s 716 mmHg 63%
07:00 +9°C° 0 mm 1 m/s 717 mmHg 56%
08:00 +11°C° 0 mm 1 m/s 717 mmHg 50%
09:00 +14°C° 0 mm 1 m/s 717 mmHg 44%
10:00 +15°C° 0 mm 1 m/s 717 mmHg 40%
11:00 +18°C° 0 mm 1 m/s 717 mmHg 36%
12:00 +20°C° 0 mm 1 m/s 717 mmHg 32%
13:00 +21°C° 0 mm 1 m/s 716 mmHg 32%
14:00 +21°C° 0 mm 1 m/s 716 mmHg 31%
15:00 +22°C° 0 mm 1 m/s 716 mmHg 30%
16:00 +21°C° 0 mm 1 m/s 715 mmHg 34%
17:00 +20°C° 0 mm 1 m/s 715 mmHg 39%
18:00 +20°C° 0 mm 1 m/s 715 mmHg 43%
19:00 +18°C° 0 mm 1 m/s 715 mmHg 46%
20:00 +15°C° 0 mm 1 m/s 715 mmHg 48%
21:00 +14°C° 0 mm 1 m/s 715 mmHg 50%
22:00 +13°C° 0 mm 1 m/s 715 mmHg 53%
23:00 +13°C° 0 mm 1 m/s 715 mmHg 56%
Mostrar mais

Necessitamos do seu Consentimento

A Meteoprog e os seus Fornecedores de Serviços podem armazenar e aceder a dados pessoais como cookies, identificadores do dispositivo ou outras tecnologias semelhantes existentes no seu dispositivo e processar estes dados para personalizar conteúdos e anúncios, assim como funcionalidades nas redes sociais e análise de tráfego.

  • Armazenar e/ou aceder a informações no seu dispositivo

    Os cookies, identificadores do dispositivo ou outras informações podem ser armazenados ou acedidos no seu dispositivo, para os fins acima indicados.

  • Anúncios e conteúdos personalizados, medição de anúncios e conteúdos, dados sobre o público-alvo e desenvolvimento de produtos

    Os anúncios e os conteúdos podem ser personalizados com base num perfil. Podem ser adicionados dados adicionais para uma maior personalização dos anúncios e dos conteúdos. A eficácia dos anúncios e dos conteúdos pode ser medida. Podem ser obtidas informações sobre o público que visualizou os anúncios e os conteúdos. Estes dados podem ser usados para desenvolver ou melhorar sistemas, softwares ou a experiência do utilizador.

Ao clicar em "Eu concordo”, permitirá o uso de cookies, identificadores do dispositivo e web beacons mencionados ou outras tecnologias semelhantes. As configurações do navegador do seu dispositivo podem ser alteradas.

Para certos fins, podem ser invocados interesses legítimos ao invés de consentimento. Pode ler mais informação sobre este assunto na nossa Política de Privacidade e Cookies.